Time,TemperatureF,DewpointF,PressureIn,WindDirection,WindDirectionDegrees,WindSpeedMPH,WindSpeedGustMPH,Humidity,HourlyPrecipIn,Conditions,Clouds,dailyrainin,SoftwareType,DateUTC
2013-07-08 00:06:00,75.4,65.0,30.05,SSE,147,2.0,6.0,70,0.00,,,0.00,weatherlink.com 1.10,2013-07-08 05:06:00,
2013-07-08 00:21:00,75.2,65.0,30.05,SE,133,3.0,7.0,70,0.00,,,0.00,weatherlink.com 1.10,2013-07-08 05:21:00,
2013-07-08 00:36:00,74.6,65.0,30.06,SSE,156,2.0,4.0,72,0.00,,,0.00,weatherlink.com 1.10,2013-07-08 05:36:00,
2013-07-08 00:51:00,73.8,65.0,30.06,SSE,161,0.0,3.0,74,0.00,,,0.00,weatherlink.com 1.10,2013-07-08 05:51:00,
2013-07-08 01:06:00,73.5,65.0,30.05,SSE,153,0.0,3.0,75,0.00,,,0.00,weatherlink.com 1.10,2013-07-08 06:06:00,
2013-07-08 01:21:00,73.3,65.0,30.06,SSE,152,3.0,3.0,75,0.00,,,0.00,weatherlink.com 1.10,2013-07-08 06:21:00,
2013-07-08 01:36:00,73.1,65.0,30.05,South,170,2.0,3.0,76,0.00,,,0.00,weatherlink.com 1.10,2013-07-08 06:36:00,
2013-07-08 01:51:00,72.9,65.0,30.05,South,177,0.0,4.0,77,0.00,,,0.00,weatherlink.com 1.10,2013-07-08 06:51:00,
2013-07-08 02:06:00,72.5,65.0,30.05,South,180,4.0,5.0,78,0.00,,,0.00,weatherlink.com 1.10,2013-07-08 07:06:00,
2013-07-08 02:21:00,72.2,65.0,30.05,South,169,2.0,4.0,79,0.00,,,0.00,weatherlink.com 1.10,2013-07-08 07:21:00,
2013-07-08 02:36:00,71.8,65.0,30.05,SSE,168,0.0,5.0,80,0.00,,,0.00,weatherlink.com 1.10,2013-07-08 07:36:00,
2013-07-08 02:51:00,71.3,65.0,30.05,SSW,196,2.0,4.0,81,0.00,,,0.00,weatherlink.com 1.10,2013-07-08 07:51:00,
2013-07-08 03:06:00,71.0,65.0,30.05,South,188,1.0,6.0,82,0.00,,,0.00,weatherlink.com 1.10,2013-07-08 08:06:00,
2013-07-08 03:21:00,71.2,66.0,30.05,South,186,3.0,6.0,82,0.00,,,0.00,weatherlink.com 1.10,2013-07-08 08:21:00,
2013-07-08 03:36:00,70.7,66.0,30.05,South,171,0.0,4.0,84,0.00,,,0.00,weatherlink.com 1.10,2013-07-08 08:36:00,
2013-07-08 03:51:00,70.5,66.0,30.05,SSE,155,3.0,4.0,84,0.00,,,0.00,weatherlink.com 1.10,2013-07-08 08:51:00,
2013-07-08 04:06:00,70.6,66.0,30.05,SSE,155,2.0,4.0,85,0.00,,,0.00,weatherlink.com 1.10,2013-07-08 09:06:00,
2013-07-08 04:21:00,70.7,66.0,30.05,South,186,5.0,6.0,85,0.00,,,0.00,weatherlink.com 1.10,2013-07-08 09:21:00,
2013-07-08 04:36:00,70.3,66.0,30.05,South,186,2.0,6.0,86,0.00,,,0.00,weatherlink.com 1.10,2013-07-08 09:36:00,
2013-07-08 04:51:00,70.2,66.0,30.05,South,186,0.0,5.0,87,0.00,,,0.00,weatherlink.com 1.10,2013-07-08 09:51:00,
2013-07-08 05:06:00,70.2,66.0,30.06,South,169,0.0,3.0,87,0.00,,,0.00,weatherlink.com 1.10,2013-07-08 10:06:00,
2013-07-08 05:21:00,70.3,66.0,30.06,South,173,0.0,4.0,87,0.00,,,0.00,weatherlink.com 1.10,2013-07-08 10:21:00,
2013-07-08 05:36:00,70.2,66.0,30.06,South,173,0.0,2.0,87,0.00,,,0.00,weatherlink.com 1.10,2013-07-08 10:36:00,
2013-07-08 05:51:00,70.0,66.0,30.07,SSE,166,1.0,3.0,88,0.00,,,0.00,weatherlink.com 1.10,2013-07-08 10:51:00,
2013-07-08 06:06:00,69.8,66.0,30.07,SSE,148,0.0,4.0,88,0.00,,,0.00,weatherlink.com 1.10,2013-07-08 11:06:00,
2013-07-08 06:21:00,69.8,67.0,30.07,SSE,148,0.0,3.0,89,0.00,,,0.00,weatherlink.com 1.10,2013-07-08 11:21:00,
2013-07-08 06:36:00,70.1,67.0,30.07,SSE,148,2.0,3.0,89,0.00,,,0.00,weatherlink.com 1.10,2013-07-08 11:36:00,
2013-07-08 06:51:00,70.7,67.0,30.07,SSE,157,1.0,5.0,89,0.00,,,0.00,weatherlink.com 1.10,2013-07-08 11:51:00,
2013-07-08 07:06:00,71.2,68.0,30.08,SSE,150,3.0,6.0,89,0.00,,,0.00,weatherlink.com 1.10,2013-07-08 12:06:00,
2013-07-08 07:21:00,71.7,68.0,30.08,South,175,3.0,5.0,88,0.00,,,0.00,weatherlink.com 1.10,2013-07-08 12:21:00,
2013-07-08 07:36:00,72.2,69.0,30.08,South,176,3.0,7.0,88,0.00,,,0.00,weatherlink.com 1.10,2013-07-08 12:36:00,
2013-07-08 07:51:00,73.1,69.0,30.08,SSW,194,4.0,6.0,87,0.00,,,0.00,weatherlink.com 1.10,2013-07-08 12:51:00,
2013-07-08 08:06:00,73.7,69.0,30.09,SSW,194,3.0,8.0,86,0.00,,,0.00,weatherlink.com 1.10,2013-07-08 13:06:00,
2013-07-08 08:21:00,74.7,70.0,30.09,SSW,205,4.0,9.0,85,0.00,,,0.00,weatherlink.com 1.10,2013-07-08 13:21:00,
2013-07-08 08:36:00,75.6,71.0,30.09,SW,227,6.0,9.0,84,0.00,,,0.00,weatherlink.com 1.10,2013-07-08 13:36:00,
2013-07-08 08:51:00,76.9,70.0,30.09,SSW,208,7.0,11.0,80,0.00,,,0.00,weatherlink.com 1.10,2013-07-08 13:51:00,
2013-07-08 09:06:00,77.6,71.0,30.09,SW,230,7.0,13.0,79,0.00,,,0.00,weatherlink.com 1.10,2013-07-08 14:06:00,
2013-07-08 09:21:00,78.6,71.0,30.10,SSW,209,6.0,13.0,78,0.00,,,0.00,weatherlink.com 1.10,2013-07-08 14:21:00,
2013-07-08 09:36:00,80.2,72.0,30.10,SSW,212,4.0,13.0,75,0.00,,,0.00,weatherlink.com 1.10,2013-07-08 14:36:00,
2013-07-08 09:52:00,81.8,73.0,30.10,SW,223,3.0,13.0,74,0.00,,,0.00,weatherlink.com 1.10,2013-07-08 14:52:00,
2013-07-08 10:07:00,81.6,72.0,30.10,West,259,15.0,16.0,73,0.00,,,0.00,weatherlink.com 1.10,2013-07-08 15:07:00,
2013-07-08 10:22:00,81.8,72.0,30.10,SW,225,12.0,17.0,71,0.00,,,0.00,weatherlink.com 1.10,2013-07-08 15:22:00,
2013-07-08 10:37:00,82.9,72.0,30.10,WSW,248,8.0,14.0,69,0.00,,,0.00,weatherlink.com 1.10,2013-07-08 15:37:00,
2013-07-08 10:52:00,83.1,72.0,30.10,SSW,200,10.0,13.0,69,0.00,,,0.00,weatherlink.com 1.10,2013-07-08 15:52:00,
2013-07-08 11:07:00,84.1,72.0,30.10,SW,214,6.0,16.0,67,0.00,,,0.00,weatherlink.com 1.10,2013-07-08 16:07:00,
2013-07-08 11:22:00,84.1,72.0,30.10,SW,220,4.0,11.0,67,0.00,,,0.00,weatherlink.com 1.10,2013-07-08 16:22:00,
2013-07-08 11:37:00,84.3,72.0,30.10,WSW,243,9.0,11.0,66,0.00,,,0.00,weatherlink.com 1.10,2013-07-08 16:37:00,
2013-07-08 11:52:00,85.0,71.0,30.10,SSW,194,6.0,11.0,64,0.00,,,0.00,weatherlink.com 1.10,2013-07-08 16:52:00,
2013-07-08 12:07:00,85.1,71.0,30.10,SW,231,9.0,10.0,63,0.00,,,0.00,weatherlink.com 1.10,2013-07-08 17:07:00,
2013-07-08 12:22:00,85.7,72.0,30.10,South,176,2.0,11.0,64,0.00,,,0.00,weatherlink.com 1.10,2013-07-08 17:22:00,
2013-07-08 13:22:00,86.3,70.0,30.09,South,174,2.0,7.0,58,0.00,,,0.00,weatherlink.com 1.10,2013-07-08 18:22:00,
2013-07-08 13:37:00,87.1,70.0,30.09,SSW,203,4.0,7.0,58,0.00,,,0.00,weatherlink.com 1.10,2013-07-08 18:37:00,
2013-07-08 14:07:00,90.2,70.0,30.09,South,185,3.0,8.0,52,0.00,,,0.00,weatherlink.com 1.10,2013-07-08 19:07:00,
2013-07-08 14:22:00,90.1,70.0,30.08,SSW,193,4.0,9.0,51,0.00,,,0.00,weatherlink.com 1.10,2013-07-08 19:22:00,
2013-07-08 14:37:00,90.1,69.0,30.08,South,169,0.0,9.0,50,0.00,,,0.00,weatherlink.com 1.10,2013-07-08 19:37:00,
2013-07-08 14:52:00,89.5,71.0,30.07,SW,220,6.0,9.0,54,0.00,,,0.00,weatherlink.com 1.10,2013-07-08 19:52:00,
2013-07-08 15:07:00,90.8,70.0,30.07,SSE,154,5.0,9.0,51,0.00,,,0.00,weatherlink.com 1.10,2013-07-08 20:07:00,
2013-07-08 15:52:00,91.4,67.0,30.06,SSW,208,4.0,10.0,45,0.00,,,0.00,weatherlink.com 1.10,2013-07-08 20:52:00,
2013-07-08 16:22:00,88.1,69.0,30.06,SSW,204,2.0,8.0,53,0.00,,,0.00,weatherlink.com 1.10,2013-07-08 21:22:00,
2013-07-08 16:37:00,88.0,68.0,30.05,SSW,196,5.0,7.0,52,0.00,,,0.00,weatherlink.com 1.10,2013-07-08 21:37:00,
2013-07-08 16:52:00,88.9,70.0,30.06,South,187,0.0,5.0,53,0.00,,,0.00,weatherlink.com 1.10,2013-07-08 21:52:00,
2013-07-08 17:07:00,89.3,69.0,30.05,SSW,204,2.0,5.0,51,0.00,,,0.00,weatherlink.com 1.10,2013-07-08 22:07:00,
2013-07-08 17:22:00,89.1,68.0,30.05,SSE,165,2.0,7.0,50,0.00,,,0.00,weatherlink.com 1.10,2013-07-08 22:22:00,
2013-07-08 17:37:00,89.0,69.0,30.05,SSE,147,3.0,8.0,51,0.00,,,0.00,weatherlink.com 1.10,2013-07-08 22:37:00,
2013-07-08 17:52:00,88.6,69.0,30.04,SSE,158,2.0,8.0,52,0.00,,,0.00,weatherlink.com 1.10,2013-07-08 22:52:00,
2013-07-08 18:07:00,88.8,69.0,30.04,SE,139,3.0,7.0,53,0.00,,,0.00,weatherlink.com 1.10,2013-07-08 23:07:00,
2013-07-08 18:22:00,88.4,70.0,30.04,SE,144,2.0,6.0,55,0.00,,,0.00,weatherlink.com 1.10,2013-07-08 23:22:00,
2013-07-08 18:38:00,87.9,70.0,30.03,SE,137,3.0,5.0,56,0.00,,,0.00,weatherlink.com 1.10,2013-07-08 23:38:00,
2013-07-08 18:53:00,86.6,71.0,30.03,SE,127,4.0,6.0,59,0.00,,,0.00,weatherlink.com 1.10,2013-07-08 23:53:00,
2013-07-08 19:23:00,85.3,72.0,30.03,SE,132,4.0,5.0,65,0.00,,,0.00,weatherlink.com 1.10,2013-07-09 00:23:00,
2013-07-08 19:38:00,84.7,72.0,30.03,ESE,123,1.0,5.0,66,0.00,,,0.00,weatherlink.com 1.10,2013-07-09 00:38:00,
2013-07-08 19:53:00,84.1,72.0,30.03,ESE,120,1.0,3.0,66,0.00,,,0.00,weatherlink.com 1.10,2013-07-09 00:53:00,
2013-07-08 20:08:00,83.1,71.0,30.03,ESE,121,1.0,4.0,67,0.00,,,0.00,weatherlink.com 1.10,2013-07-09 01:08:00,
2013-07-08 20:53:00,79.8,71.0,30.03,ESE,121,0.0,2.0,74,0.00,,,0.00,weatherlink.com 1.10,2013-07-09 01:53:00,
2013-07-08 21:23:00,78.2,70.0,30.03,ESE,121,0.0,3.0,76,0.00,,,0.00,weatherlink.com 1.10,2013-07-09 02:23:00,
2013-07-08 21:38:00,77.8,70.0,30.04,SE,146,3.0,4.0,77,0.00,,,0.00,weatherlink.com 1.10,2013-07-09 02:38:00,
2013-07-08 21:53:00,77.8,70.0,30.04,SE,143,3.0,5.0,77,0.00,,,0.00,weatherlink.com 1.10,2013-07-09 02:53:00,
2013-07-08 22:23:00,77.6,70.0,30.05,SE,146,3.0,5.0,77,0.00,,,0.00,weatherlink.com 1.10,2013-07-09 03:23:00,
2013-07-08 22:38:00,77.5,69.0,30.05,SSE,156,2.0,5.0,76,0.00,,,0.00,weatherlink.com 1.10,2013-07-09 03:38:00,
2013-07-08 22:53:00,77.3,69.0,30.06,SE,139,0.0,7.0,76,0.00,,,0.00,weatherlink.com 1.10,2013-07-09 03:53:00,
2013-07-08 23:08:00,76.6,69.0,30.06,SSE,150,1.0,4.0,77,0.00,,,0.00,weatherlink.com 1.10,2013-07-09 04:08:00,
2013-07-08 23:23:00,75.8,69.0,30.05,SSE,160,0.0,4.0,79,0.00,,,0.00,weatherlink.com 1.10,2013-07-09 04:23:00,
2013-07-08 23:38:00,75.6,69.0,30.06,SSW,205,3.0,5.0,79,0.00,,,0.00,weatherlink.com 1.10,2013-07-09 04:38:00,
2013-07-08 23:53:00,75.7,69.0,30.06,SSW,200,1.0,4.0,79,0.00,,,0.00,weatherlink.com 1.10,2013-07-09 04:53:00,